Retour au catalogue

FENGYUN 1C DEB

ActifPO
NORAD 30396·DEBRIS·🇨🇳 China

Lancé May 10, 1999 depuis Taiyuan Satellite Launch Center

Loading…

Prochains Passages (prochaines 24 heures)

TLE

FraisSource: Space-Track

Époque: Sep 14, 2026, 10:15 UTC

1 30396U 99025ADK 26257.42718700  .00000065  00000-0  79594-4 0  9996
2 30396  98.2422 234.5814 0135323  87.3689  62.9207 13.87247188994013

Suivez FENGYUN 1C DEB en temps réel avec AllMySat

Download on the App Store